Plovdiv, Bulgaria

10:23 PM EEST on April 19, 2019 (GMT +0300)
Plovdiv

Weather History for LBPD - April, 2019

Change the Weather History Date:

Friday, April 19, 2019

  Actual Average Record
Temperature  
Mean Temperature 55 °F -  
Max Temperature 66 °F - - ()
Min Temperature 44 °F - - ()
Degree Days  
Heating Degree Days 10    
Growing Degree Days 5 (Base 50)    
Moisture  
Dew Point 39 °F    
Average Humidity 64    
Maximum Humidity 100    
Minimum Humidity 26    
Precipitation  
Precipitation 0.00 in - - ()
Sea Level Pressure  
Sea Level Pressure 30.25 in    
Wind  
Wind Speed 7 mph ()    
Max Wind Speed 20 mph    
Max Gust Speed 34 mph    
Visibility 6.2 miles    
Events Rain    
T = Trace of Precipitation, MM = Missing Value Source: Averaged Metar Reports

Daily Weather History Graph

Daily Weather History Graph

Search for Another Location

Airport or City:

Astronomy

Apr. 19, 2019 Rise Set
Actual Time 6:34 AM EEST 8:06 PM EEST
Civil Twilight 6:05 AM EEST 8:35 PM EEST
Nautical Twilight 5:30 AM EEST 9:11 PM EEST
Astronomical Twilight 4:52 AM EEST 9:49 PM EEST
Moon 8:09 PM EEST 6:52 AM EEST
Length of Visible Light 14h 30m
Length of Day
13h 31m
Full, 100% of the Moon is Illuminated
Today
Full
Apr 19
Full
Apr 27
Last Quarter
May 5
New
May 12
First Quarter

Hourly Weather History & Observations

Time (EEST) Temp. Windchill Dew Point Humidity Pressure Visibility Wind Dir Wind Speed Gust Speed Precip Events Conditions
12:00 AM 46.4 °F 43.5 °F 42.8 °F 87% 30.33 in 6.2 mi SSE 5.8 mph - N/A Rain Light Rain Showers
12:30 AM 46.4 °F 44.3 °F 42.8 °F 87% 30.33 in 6.2 mi SSE 4.6 mph - N/A   Overcast
1:00 AM 44.6 °F 42.2 °F 42.8 °F 93% 30.33 in 6.2 mi SSE 4.6 mph - N/A   Mostly Cloudy
1:30 AM 46.4 °F 44.3 °F 42.8 °F 87% 30.33 in 6.2 mi South 4.6 mph - N/A   Overcast
2:00 AM 44.6 °F 41.4 °F 42.8 °F 93% 30.33 in 6.2 mi South 5.8 mph - N/A   Overcast
2:30 AM 44.6 °F 41.4 °F 42.8 °F 93% 30.33 in 6.2 mi WNW 5.8 mph - N/A   Overcast
3:00 AM 44.6 °F 43.1 °F 42.8 °F 93% 30.30 in 6.2 mi NW 3.5 mph - N/A   Overcast
3:30 AM 44.6 °F 43.1 °F 42.8 °F 93% 30.30 in 6.2 mi SW 3.5 mph - N/A   Overcast
4:00 AM 44.6 °F 43.1 °F 44.6 °F 100% 30.30 in 6.2 mi NNE 3.5 mph - N/A   Overcast
4:30 AM 44.6 °F - 44.6 °F 100% 30.30 in 6.2 mi Variable 2.3 mph - N/A   Overcast
5:00 AM 44.6 °F 43.1 °F 42.8 °F 93% 30.27 in 6.2 mi SW 3.5 mph - N/A   Overcast
5:30 AM 44.6 °F 43.1 °F 44.6 °F 100% 30.27 in 6.2 mi SE 3.5 mph - N/A   Overcast
6:00 AM 44.6 °F 42.2 °F 42.8 °F 93% 30.27 in 5.6 mi NW 4.6 mph - N/A   Overcast
6:30 AM 44.6 °F 41.4 °F 42.8 °F 93% 30.27 in 5.6 mi WSW 5.8 mph - N/A   Overcast
7:00 AM 44.6 °F 42.2 °F 42.8 °F 93% 30.27 in 6.2 mi NW 4.6 mph - N/A   Overcast
7:30 AM 46.4 °F 43.5 °F 42.8 °F 87% 30.27 in 6.2 mi NW 5.8 mph - N/A   Overcast
8:00 AM 48.2 °F - 42.8 °F 82% 30.27 in 6.2 mi WNW 8.1 mph - N/A   Overcast
8:30 AM 51.8 °F - 41.0 °F 67% 30.27 in 6.2 mi WNW 11.5 mph - N/A   Mostly Cloudy
9:00 AM 53.6 °F - 41.0 °F 62% 30.27 in 6.2 mi West 16.1 mph - N/A   Unknown
9:30 AM 53.6 °F - 39.2 °F 58% 30.27 in 6.2 mi West 15.0 mph - N/A   Partly Cloudy
10:00 AM 55.4 °F - 39.2 °F 54% 30.27 in 6.2 mi WNW 16.1 mph - N/A   Unknown
10:30 AM 57.2 °F - 37.4 °F 48% 30.27 in 6.2 mi West 13.8 mph - N/A   Unknown
11:00 AM 59.0 °F - 37.4 °F 45% 30.27 in 6.2 mi West 13.8 mph - N/A   Unknown
11:30 AM 59.0 °F - 35.6 °F 42% 30.27 in 6.2 mi West 12.7 mph - N/A   Unknown
12:00 PM 60.8 °F - 35.6 °F 39% 30.24 in 6.2 mi WNW 12.7 mph - N/A   Scattered Clouds
12:30 PM 60.8 °F - 33.8 °F 36% 30.24 in 6.2 mi West 11.5 mph - N/A   Partly Cloudy
1:00 PM 62.6 °F - 32.0 °F 32% 30.21 in 6.2 mi West 13.8 mph - N/A   Partly Cloudy
1:30 PM 62.6 °F - 32.0 °F 32% 30.21 in 6.2 mi West 11.5 mph - N/A   Unknown
2:00 PM 62.6 °F - 32.0 °F 32% 30.21 in 6.2 mi WNW 10.4 mph - N/A   Scattered Clouds
2:30 PM 64.4 °F - 32.0 °F 30% 30.21 in 6.2 mi West 11.5 mph - N/A   Scattered Clouds
3:00 PM 64.4 °F - 32.0 °F 30% 30.18 in 6.2 mi WNW 12.7 mph - N/A   Partly Cloudy
3:30 PM 64.4 °F - 33.8 °F 32% 30.18 in 6.2 mi NW 9.2 mph - N/A   Scattered Clouds
4:30 PM 64.4 °F - 32.0 °F 30% 30.15 in 6.2 mi NW 10.4 mph - N/A   Mostly Cloudy
5:00 PM 64.4 °F - 33.8 °F 32% 30.15 in 6.2 mi NW 6.9 mph - N/A   Overcast
5:30 PM 66.2 °F - 32.0 °F 28% 30.12 in 6.2 mi NNW 12.7 mph - N/A   Unknown
6:00 PM 66.2 °F - 30.2 °F 26% 30.12 in 6.2 mi NNW 12.7 mph - N/A   Unknown
6:30 PM 66.2 °F - 32.0 °F 28% 30.15 in 6.2 mi North 8.1 mph - N/A   Scattered Clouds
7:00 PM 57.2 °F - 39.2 °F 51% 30.18 in 6.2 mi NE 19.6 mph 34.5 mph N/A   Mostly Cloudy
7:30 PM 53.6 °F - 39.2 °F 58% 30.24 in 6.2 mi East 19.6 mph - N/A   Overcast
8:00 PM 50.0 °F - 41.0 °F 71% 30.27 in 6.2 mi SE 19.6 mph - N/A   Overcast
8:30 PM 51.8 °F - 39.2 °F 62% 30.24 in 6.2 mi SSE 11.5 mph - N/A   Overcast
9:00 PM 51.8 °F - 41.0 °F 67% 30.27 in 6.2 mi SSE 6.9 mph - N/A Rain Light Rain Showers
9:30 PM 50.0 °F - 42.8 °F 76% 30.27 in 6.2 mi South 9.2 mph - N/A Rain Rain Showers
10:00 PM 50.0 °F - 44.6 °F 82% 30.27 in 6.2 mi SSE 4.6 mph - N/A   Overcast